This is the latest recevied weather packets stored in our database for station/object WE0DX-1. If no packets are shown the sender has not sent any weather packets the latest 10 day(s).
| Time | Temp. | Humidity | Pressure | Rain* | Wind** | Luminosity | Snow |
|---|---|---|---|---|---|---|---|
| 1777394456 | 10.56° C | 79% | 1016.8 hPa | 0 mm | - | 201 W/m² | - |
| 1777394153 | 10.56° C | 79% | 1016.8 hPa | 0 mm | - | 191 W/m² | - |
| 1777393849 | 10.56° C | 79% | 1016.7 hPa | 0 mm | - | 184 W/m² | - |
| 1777393548 | 10.56° C | 79% | 1016.4 hPa | 0 mm | - | 158 W/m² | - |
| 1777393244 | 10.56° C | 79% | 1016.8 hPa | 0 mm | - | 186 W/m² | - |
| 1777392941 | 10.56° C | 78% | 1016.9 hPa | 0 mm | - | 218 W/m² | - |
| 1777392636 | 10.56° C | 78% | 1016.8 hPa | 0 mm | - | 237 W/m² | - |
| 1777392333 | 10.56° C | 78% | 1017 hPa | 0 mm | - | 277 W/m² | - |
| 1777392032 | 10° C | 79% | 1017 hPa | 0 mm | - | 232 W/m² | - |
| 1777391728 | 10.56° C | 78% | 1016.9 hPa | 0 mm | - | 271 W/m² | - |
| 1777391425 | 10.56° C | 78% | 1016.7 hPa | 0 mm | - | 318 W/m² | - |
| 1777391121 | 10° C | 80% | 1017.1 hPa | 0 mm | - | 235 W/m² | - |
| 1777390817 | 10° C | 79% | 1017 hPa | 0 mm | - | 211 W/m² | - |
| 1777390515 | 10° C | 80% | 1017.2 hPa | 0 mm | - | 183 W/m² | - |
| 1777390210 | 10° C | 80% | 1017.3 hPa | 0 mm | - | 154 W/m² | - |
| 1777389907 | 10° C | 79% | 1017 hPa | 0 mm | - | 204 W/m² | - |
| 1777389604 | 9.44° C | 81% | 1016.8 hPa | 0 mm | - | 160 W/m² | - |
| 1777389300 | 9.44° C | 81% | 1017.1 hPa | 0 mm | - | 133 W/m² | - |
| 1777388998 | 10° C | 81% | 1017.2 hPa | 0 mm | - | 138 W/m² | - |
| 1777388695 | 9.44° C | 81% | 1017.5 hPa | 0 mm | - | 121 W/m² | - |
| 1777388391 | 9.44° C | 81% | 1017.4 hPa | 0 mm | - | 103 W/m² | - |
| 1777388091 | 9.44° C | 81% | 1017.4 hPa | 0 mm | - | 100 W/m² | - |
| 1777387788 | 9.44° C | 82% | 1017.4 hPa | 0 mm | - | 107 W/m² | - |
| 1777387484 | 9.44° C | 83% | 1017.7 hPa | 0 mm | - | 106 W/m² | - |
| 1777387179 | 9.44° C | 82% | 1018 hPa | 0 mm | - | 92 W/m² | - |
* Rain latest hour (hover to see other rain measurements)
** Current wind speed in m/s (hover to see current wind gust speed)